SB KEPS @ AMSAT $ORB26170.1 2Line Orbital Elements 26170.AMSAT QST de W1STR AMSAT Orbital Elements for Amateur Satellites in TLE Format From Orbital Analysis Office New England Sci-Tech STEM Education Center Natick MA June 19, 2026 To all radio amateurs These element sets describe the orbits of various satellites in use by the amateur radio community. For details see: www.amsat.org/keplerian-elements-formats/ A daily update of element sets is available at: www.amsat.org/tle/daily-bulletin.txt or without bulletin text: www.amsat.org/tle/dailytle.txt AO-07 1 07530U 74089B 26170.28649176 -.00000049 00000-0 -14965-4 0 9996 2 07530 101.9899 183.5551 0012598 126.2079 245.4848 12.53698126360786 UO-11 1 14781U 84021B 26170.16786155 .00000971 00000-0 10437-3 0 9996 2 14781 97.8059 135.7203 0007827 165.9456 194.1981 14.90787328257424 LO-19 1 20442U 90005G 26170.27502463 .00000073 00000-0 42843-4 0 9996 2 20442 98.8849 192.1382 0011233 194.7755 165.3102 14.34123725902690 AO-27 1 22825U 93061C 26170.16751487 .00000072 00000-0 44294-4 0 9999 2 22825 98.6880 237.5804 0009542 94.6825 265.5447 14.30942746707280 FO-29 1 24278U 96046B 26170.08554224 -.00000011 00000-0 21418-4 0 9997 2 24278 98.5238 18.6976 0350923 91.5200 272.6161 13.53274530473424 GO-32 1 25397U 98043D 26170.24192257 .00000033 00000-0 34417-4 0 9997 2 25397 99.0068 163.0524 0001154 158.7829 201.3398 14.24428734451625 ISS 1 25544U 98067A 26170.06007799 .00009022 00000-0 16988-3 0 9992 2 25544 51.6331 290.8234 0004653 203.3119 156.7659 15.49309015572040 NO-44 1 26931U 01043C 26170.25467584 .00000068 00000-0 56318-4 0 9997 2 26931 67.0503 238.9246 0006070 264.6599 95.3810 14.31956752290743 SO-50 1 27607U 02058C 26170.24569630 .00000770 00000-0 10829-3 0 9995 2 27607 64.5512 122.6160 0075174 262.0965 97.1604 14.83050851264766 CO-55 1 27844U 03031E 26170.28511223 .00000210 00000-0 10996-3 0 9993 2 27844 98.6736 178.8176 0009679 171.9692 188.1644 14.24336816191977 RS-22 1 27939U 03042A 26170.32876547 .00000461 00000-0 79351-4 0 9997 2 27939 98.3467 354.7473 0009914 262.0222 220.1907 14.73469520215865 CO-65 1 32785U 08021C 26170.23748738 .00004777 00000-0 30223-3 0 9992 2 32785 97.8277 151.6986 0009550 32.2622 327.9188 15.09467527985500 CO-66 1 32791U 08021J 26169.44123302 .00014056 00000-0 44622-3 0 9993 2 32791 97.7517 167.3987 0000890 357.5135 2.6101 15.32786684987483 RS-30 1 32953U 08025A 26170.27136955 .00000057 00000-0 34284-3 0 9997 2 32953 82.5038 354.1428 0018779 309.1385 50.8025 12.43179633819959 SRMSAT 1 37841U 11058D 26170.07684065 .00000355 00000-0 48973-4 0 9998 2 37841 19.9727 48.0289 0011754 224.4771 289.9104 14.11575921758083 ZACUBE-1 1 39417U 13066B 26170.14032462 .00002311 00000-0 18198-3 0 9995 2 39417 97.8075 132.4874 0041050 240.9478 118.7631 15.01197255681025 Delfi-N3xt 1 39428U 13066N 26170.25269225 .00004569 00000-0 40032-3 0 9997 2 39428 97.8335 90.5618 0073798 198.5555 161.2972 14.95094480674935 GOMX-1 1 39430U 13066Q 26170.29685231 .00001368 00000-0 21021-3 0 9994 2 39430 97.6475 10.6258 0130121 70.8662 290.6579 14.69466237670221 LO-74 1 39440U 13066AA 26170.27371325 .00004250 00000-0 39344-3 0 9999 2 39440 97.8910 119.2605 0058256 22.3553 338.0186 14.93777947677306 AO-73 1 39444U 13066AE 26170.17779278 .00004907 00000-0 30582-3 0 9995 2 39444 97.8280 141.6651 0035814 193.8693 166.1555 15.09509465679964 DTUSAT-2 1 40030U 14033W 26169.88907656 .00005314 00000-0 28820-3 0 9997 2 40030 98.0864 167.7240 0006804 218.7107 141.3636 15.15033669652944 LILACSAT-2 1 40908U 15049K 26170.33616911 .00014738 00000-0 25077-3 0 9993 2 40908 97.4640 207.2597 0005634 234.8814 125.1911 15.51503390596083 Horyu-4 1 41340U 16012D 26170.06239089 .00441316 73851-4 93802-3 0 9997 2 41340 30.9841 65.2425 0006076 284.0603 75.9383 15.97473078571116 Lapan A3 1 41603U 16040E 26170.27977263 .00002804 00000-0 89880-4 0 9995 2 41603 97.1490 166.3567 0010622 18.7688 341.3945 15.33115977555139 CAS-2T 1 41847U 16066G 26170.11066240 .00001331 00000-0 19362-3 0 9991 2 41847 98.3821 245.8251 0342843 123.6625 239.7766 14.44699826505073 TechnoSat 1 42829U 17042E 26170.17743574 .00002913 00000-0 20885-3 0 9994 2 42829 97.4295 327.7591 0019097 87.9801 272.3613 15.04973153487007 AO-91 1 43017U 17073E 26168.60486874 .00005679 00000-0 24962-3 0 9992 2 43017 97.4696 35.8108 0149538 327.7970 31.4193 15.12722439465459 S-Net D 1 43186U 18014G 26170.24321138 .00003818 00000-0 19824-3 0 9993 2 43186 97.5358 75.0209 0008738 23.9681 336.1957 15.16688992459073 S-Net B 1 43187U 18014H 26170.25470483 .00003828 00000-0 19891-3 0 9998 2 43187 97.5364 75.0190 0009245 18.8200 341.3373 15.16659623459073 S-Net A 1 43188U 18014J 26170.24207808 .00003872 00000-0 20093-3 0 9992 2 43188 97.5374 75.2156 0009115 19.4309 340.7269 15.16697000459070 S-Net C 1 43189U 18014K 26170.25859131 .00003878 00000-0 20147-3 0 9992 2 43189 97.5392 75.3071 0010238 11.0428 349.1028 15.16651751457624 Ten-Koh 1 43677U 18084G 26170.25416127 .00001447 00000-0 11251-3 0 9991 2 43677 98.0772 2.7053 0011512 108.2407 252.0071 15.02949377416477 PO-101 1 43678U 18084H 26170.30387986 .00001646 00000-0 13580-3 0 9996 2 43678 98.1183 6.6032 0012716 163.3714 196.7928 15.00459215416532 QO-100 1 43700U 18090A 26170.25648108 .00000138 00000-0 00000-0 0 9994 2 43700 0.0116 48.4976 0001742 75.7738 261.3229 1.00271825 27698 MinXSS-2 1 43758U 18099A 26169.96767252 .00029386 00000-0 58220-3 0 9990 2 43758 97.4526 246.3046 0006730 247.4565 112.5973 15.46995140414401 AO-95 1 43770U 18099N 26170.10947646 .00009076 00000-0 34759-3 0 9994 2 43770 97.4376 230.3486 0007764 350.5763 9.5328 15.26744431413516 SNUSat 2 1 43782U 18099AA 26170.10860050 .00006386 00000-0 28361-3 0 9993 2 43782 97.4055 223.4630 0008556 290.4235 69.6082 15.21860979413327 SnugLite 1 43784U 18099AC 26170.10932955 .00009325 00000-0 35226-3 0 9993 2 43784 97.3860 224.3705 0001185 273.7878 86.3226 15.27212758413613 ITASat 1 1 43786U 18099AE 26170.12957279 .00004944 00000-0 23858-3 0 9993 2 43786 97.4024 221.6025 0011894 353.4838 6.6240 15.19077032413204 EAGLET 1 1 43790U 18099AJ 26170.10310161 .00003016 00000-0 17452-3 0 9991 2 43790 97.4228 219.7211 0010479 347.4140 12.6828 15.12950731412620 ESEO 1 43792U 18099AL 26170.04288844 .00001516 00000-0 11304-3 0 9991 2 43792 97.3976 207.3515 0011100 333.8048 26.2616 15.04254340412089 JO-97 1 43803U 18099AX 26170.11834528 .00014216 00000-0 43822-3 0 9999 2 43803 97.4126 232.9593 0004468 253.2846 106.7906 15.33703718413920 Suomi 100 1 43804U 18099AY 26170.10484891 .00009746 00000-0 35418-3 0 9997 2 43804 97.4179 230.4911 0008372 270.6321 89.3959 15.28450816413718 ISAT 1 43879U 18111D 26170.07989264 .00081552 00000-0 80748-3 0 9995 2 43879 97.5878 105.4471 0001400 153.0896 207.0436 15.65579569411462 UWE-4 1 43880U 18111E 26169.76835927 .00027476 00000-0 55973-3 0 9994 2 43880 97.5851 98.2321 0005260 335.4333 24.6665 15.46206755411020 Sparrow 1 43881U 18111F 26170.10105210 .00139355 00000-0 92966-3 0 9993 2 43881 97.6110 111.1226 0004518 115.5092 244.6639 15.74936127411673 Prox-1 1 44339U 19036A 26170.13245529 .00010566 00000-0 10233-2 0 9998 2 44339 23.9956 101.2589 0005766 57.6579 302.4479 14.90646590373767 Taurus 1 1 44530U 19059C 26170.28187287 .00004598 00000-0 73906-3 0 9993 2 44530 98.6421 335.2388 0007311 308.2673 51.7874 14.72112361358951 TO-108 1 44881U 19093C 26170.33337968 .00000102 00000-0 17544-4 0 9993 2 44881 97.7530 242.5134 0015039 80.5295 279.7620 14.86519950351736 RS-44 1 44909U 19096E 26170.19427269 .00000010 00000-0 -99590-5 0 9996 2 44909 82.5220 338.3709 0218247 139.4899 222.2680 12.79748867302609 SALSAT 1 46495U 20068K 26169.97697596 .00005999 00000-0 21050-3 0 9999 2 46495 97.8853 173.1506 0007950 300.6759 59.3696 15.29820569315637 CSS (TIANHE-1) 1 48274U 21035A 26170.28047081 .00020720 00000-0 24379-3 0 9991 2 48274 41.4696 309.2621 0007371 95.5475 264.6205 15.60892047293497 CUTE 1 49263U 21088D 26170.25998939 .00140727 96587-5 39202-3 0 9993 2 49263 97.4175 269.7549 0007474 225.5897 134.4767 15.93709736262889 TeikyoSat 4 1 49396U 21102B 26170.04302539 .00001407 00000-0 91507-4 0 9997 2 49396 97.3669 199.4544 0010386 289.4093 70.6013 15.09513514253003 Z-Sat 1 49399U 21102E 26170.24109346 .00004043 00000-0 19997-3 0 9994 2 49399 97.3317 205.5019 0015191 236.6546 123.3235 15.18277177253754 KOSEN 1 1 49402U 21102H 26170.10774771 .00005685 00000-0 21769-3 0 9997 2 49402 97.3180 212.2277 0013403 193.4768 166.6115 15.26856275254319 HO-113 1 50466U 21131B 26170.27602433 .00000288 00000-0 10252-3 0 9993 2 50466 98.4985 262.6544 0005398 92.3254 267.8553 14.41358755235419 SNUGLITE 2 1 52899U 22065F 26170.14928442 .00000721 00000-0 14573-3 0 9991 2 52899 98.2205 314.9762 0007875 27.3585 332.8031 14.64350678211288 UmKA 1 (RS40S) 1 57172U 23091G 26170.19938151 .00005056 00000-0 23170-3 0 9992 2 57172 97.5046 228.8890 0014292 111.3855 248.8906 15.20837952164318 CubeBel-2 (EU11S) 1 57175U 23091K 26170.27782079 .00010701 00000-0 37959-3 0 9993 2 57175 97.5047 233.5135 0011288 108.3826 251.8643 15.29195459164627 RS-38S 1 57189U 23091Z 26170.23222626 .00014009 00000-0 40032-3 0 9992 2 57189 97.5087 239.7584 0008139 71.6417 288.5711 15.36081107165009 SONATE-2 1 59112U 24043Q 26169.93578771 .00028512 00000-0 36936-3 0 9990 2 59112 97.5537 320.4387 0007134 189.6156 170.4964 15.58824558128164 GRBBeta 1 60237U 24128C 26170.21108226 .00002258 00000-0 16345-3 0 9992 2 60237 61.9881 209.1654 0040384 135.0817 225.3555 15.06649187106577 Curium One 1 60242U 24128H 26170.21951961 .00005158 00000-0 30185-3 0 9990 2 60242 61.9767 198.5769 0039576 131.2008 229.2512 15.12531482106767 ROBUSTA-3A 1 60243U 24128J 26170.18540181 .00004142 00000-0 25047-3 0 9998 2 60243 61.9845 201.1774 0041170 128.3353 232.1455 15.11692287106720 CatSat 1 60246U 24125J 26170.06565106 .00056673 00000-0 72236-3 0 9997 2 60246 97.2080 22.5900 0022360 172.6556 187.5033 15.58834959107685 HYPERVIEW-1G (RS66S) 1 61772U 24199AP 26169.90392480 .00124754 00000-0 78800-3 0 9996 2 61772 97.2865 49.7100 0004190 212.2711 147.8299 15.76240826134945 AO-123 1 61781U 24199AY 26170.25010615 .00006699 00000-0 19483-3 0 9992 2 61781 97.2994 38.9019 0012139 305.7813 54.2302 15.35701314134248 JINJUSat 1B 1 63210U 25052A 26170.23398746 .00013598 00000-0 42116-3 0 9997 2 63210 97.4000 66.9916 0005448 86.4867 273.6998 15.33556800 70413 NUSHSAT 1 1 63211U 25052B 26170.20924284 .00017543 00000-0 50143-3 0 9990 2 63211 97.3976 67.5395 0005176 89.4227 270.7610 15.36037544 70459 TEVEL2-4 1 63213U 25052D 26170.20352453 .00015753 00000-0 47064-3 0 9994 2 63213 97.3896 66.5983 0004938 99.1474 261.0328 15.34669894 70424 TEVEL2-5 1 63214U 25052E 26170.22425263 .00015567 00000-0 46766-3 0 9998 2 63214 97.3892 66.5660 0004879 100.7080 259.4713 15.34496992 70425 TEVEL2-6 1 63215U 25052F 26170.23663048 .00015385 00000-0 46276-3 0 9999 2 63215 97.3899 66.5630 0004752 101.2362 258.9415 15.34461785 70424 TEVEL2-1 1 63217U 25052H 26170.20113548 .00015095 00000-0 46186-3 0 9991 2 63217 97.3871 66.1496 0004797 109.7033 250.4728 15.33924273 70406 TEVEL2-3 1 63218U 25052J 26170.26093798 .00015207 00000-0 46441-3 0 9991 2 63218 97.3873 66.2314 0004819 109.8969 250.2793 15.33981417 70417 TEVEL2-2 1 63219U 25052K 26170.20143778 .00015322 00000-0 46863-3 0 9996 2 63219 97.3874 66.1522 0004787 109.9793 250.1966 15.33933117 70403 TEVEL2-9 1 63237U 25052AD 26170.24678173 .00014040 00000-0 45689-3 0 9993 2 63237 97.3933 65.5684 0007952 125.0554 235.1435 15.31950359 70344 TEVEL2-7 1 63238U 25052AE 26170.22275497 .00013282 00000-0 43640-3 0 9996 2 63238 97.3935 65.4597 0008026 125.5065 234.6926 15.31652594 70332 TEVEL2-8 1 63239U 25052AF 26170.23102740 .00013299 00000-0 43718-3 0 9992 2 63239 97.3936 65.4447 0008040 125.8812 234.3177 15.31637489 70338 SPIRONE 1 66657U 25274H 26170.06385499 .00001521 00000-0 14957-3 0 9998 2 66657 97.7481 99.3282 0012495 15.7856 344.3750 14.93550178 30501 K-HERO 1 66660U 25274L 26170.06792602 .00001550 00000-0 15061-3 0 9999 2 66660 97.7486 99.4945 0014458 18.8797 341.2956 14.93967303 30513 SNUGLITE-III DURI 1 66661U 25274M 26170.25657514 .00001080 00000-0 10649-3 0 9998 2 66661 97.7484 99.7013 0015098 18.9327 341.2451 14.94007005 30540 SAKHACUBE-CHOLBON 1 67290U 25313AU 26170.19448922 .00007516 00000-0 30447-3 0 9993 2 67290 97.3931 245.2045 0008635 358.2371 1.8835 15.24917945 26281 RS95S (QMR-KWT-2) 1 67291U 25313AV 26170.11534394 .00010884 00000-0 42127-3 0 9995 2 67291 97.3926 245.3056 0008023 355.7625 4.3544 15.26334096 26281 Ten-Koh2 1 68261U 25241B 26166.70419506 .00005304 00000-0 23027-3 0 9999 2 68261 51.6697 326.6857 0006067 137.6687 222.4761 15.23889978 14686 JACK-002 1 68417U 26067B 26170.13716516 .00004898 00000-0 23450-3 0 9999 2 68417 97.4571 128.7036 0000068 160.0294 200.0943 15.19413105 12241 DISCO 2 1 68431U 26067R 26170.15874406 .00006996 00000-0 33656-3 0 9990 2 68431 97.4605 128.7132 0002604 40.3522 319.7905 15.19098267 12248 HADES-SA (SpinnyONE) 1 68446U 26067AG 26169.80272641 .00013380 00000-0 63937-3 0 9999 2 68446 97.4411 128.0749 0009437 78.0016 282.2276 15.19104540 12172 PARUS-6U1 1 68456U 26067AS 26169.77097646 .00004719 00000-0 23842-3 0 9993 2 68456 97.4555 128.1100 0007382 67.6408 292.5608 15.17529812 12174 SAL-E 1 68458U 26067AU 26170.16172921 .00006686 00000-0 33392-3 0 9996 2 68458 97.4482 128.4297 0007851 73.9671 286.2427 15.17778934 12235 FSI-SAT 2 1 68792U 26088A 26170.14512115 .00003509 00000-0 23877-3 0 9999 2 68792 97.5081 319.3549 0016052 100.6174 259.6862 15.06851312 8582 OrigamiSat 2 1 68795U 26088D 26168.95805529 .00010866 00000-0 69331-3 0 9991 2 68795 97.5079 318.3357 0016131 78.7559 281.5481 15.08753974 8418 ARICA 2 1 68796U 26088E 26170.15152048 .00003686 00000-0 24000-3 0 9994 2 68796 97.5070 319.4918 0017012 74.1554 286.1549 15.08442740 8590 WASEDA-SAT-ZERO-II 1 68797U 26088F 26170.14695343 .00004972 00000-0 32037-3 0 9992 2 68797 97.5069 319.4967 0016835 74.0703 286.2379 15.08663163 8596 MANGARO-II-Piscus 1 68798U 26088G 26170.13722435 .00002918 00000-0 18874-3 0 9996 2 68798 97.5077 319.5167 0020573 76.3234 284.0284 15.08798127 8597 IO-86 1 40931U 25360.30710720 .00000000 00000-0 12800-3 0 00 2 40931 6.0006 332.5373 0012733 338.8432 8.1437 14.79075515 01 LILIUM-4 1 71922C 26067AC 26089.50133053 -.00014632 00000+0 -74472-3 0 04 2 71922 97.4497 49.1617 0004341 5.9603 355.7042 15.16896692 16 /EX